Time,TemperatureF,DewpointF,PressureIn,WindDirection,WindDirectionDegrees,WindSpeedMPH,WindSpeedGustMPH,Humidity,HourlyPrecipIn,Conditions,Clouds,dailyrainin,SoftwareType,DateUTC
2013-01-28 00:04:00,30.0,28.0,30.01,SE,141,4.0,7.0,92,0.00,,,0.00,,2013-01-28 05:04:00,
2013-01-28 00:12:00,30.0,28.0,30.01,SE,141,4.0,7.0,92,0.00,,,0.00,,2013-01-28 05:12:00,
2013-01-28 00:22:00,30.0,28.0,30.01,SE,132,5.0,7.0,93,0.00,,,0.00,,2013-01-28 05:22:00,
2013-01-28 00:32:00,30.0,28.0,30.01,ESE,121,6.0,8.0,93,0.00,,,0.00,,2013-01-28 05:32:00,
2013-01-28 00:42:00,30.0,28.0,30.01,ESE,121,6.0,8.0,93,0.00,,,0.00,,2013-01-28 05:42:00,
2013-01-28 00:52:00,30.0,28.0,29.99,SE,129,1.0,9.0,93,0.00,,,0.00,,2013-01-28 05:52:00,
2013-01-28 01:02:00,30.0,28.0,29.98,SSW,195,3.0,8.0,93,0.00,,,0.00,,2013-01-28 06:02:00,
2013-01-28 01:11:00,30.0,28.0,29.98,SSW,195,3.0,8.0,93,0.00,,,0.00,,2013-01-28 06:11:00,
2013-01-28 01:22:00,30.0,28.0,29.98,South,169,2.0,6.0,93,0.00,,,0.00,,2013-01-28 06:22:00,
2013-01-28 01:32:00,30.0,28.0,29.97,SSE,153,3.0,8.0,93,0.00,,,0.00,,2013-01-28 06:32:00,
2013-01-28 01:42:00,30.0,28.0,29.97,SSE,153,3.0,8.0,93,0.00,,,0.00,,2013-01-28 06:42:00,
2013-01-28 01:52:00,31.0,29.0,29.96,ESE,119,2.0,7.0,93,0.00,,,0.00,,2013-01-28 06:52:00,
2013-01-28 02:02:00,31.0,29.0,29.96,SE,137,3.0,6.0,93,0.00,,,0.00,,2013-01-28 07:02:00,
2013-01-28 02:11:00,31.0,29.0,29.96,SE,137,3.0,6.0,93,0.00,,,0.00,,2013-01-28 07:11:00,
2013-01-28 02:22:00,31.0,29.0,29.95,SSE,159,2.0,5.0,93,0.00,,,0.00,,2013-01-28 07:22:00,
2013-01-28 02:32:00,31.0,29.0,29.94,SSW,196,3.0,8.0,93,0.00,,,0.00,,2013-01-28 07:32:00,
2013-01-28 02:42:00,31.0,29.0,29.94,SSW,196,3.0,8.0,93,0.00,,,0.00,,2013-01-28 07:42:00,
2013-01-28 02:52:00,31.0,29.0,29.92,SE,145,2.0,7.0,93,0.00,,,0.00,,2013-01-28 07:52:00,
2013-01-28 03:01:00,31.0,29.0,29.91,South,181,3.0,7.0,94,0.00,,,0.00,,2013-01-28 08:01:00,
2013-01-28 03:11:00,31.0,29.0,29.91,South,181,3.0,7.0,94,0.00,,,0.00,,2013-01-28 08:11:00,
2013-01-28 03:21:00,31.0,29.0,29.91,SSW,213,0.0,3.0,94,0.00,,,0.00,,2013-01-28 08:21:00,
2013-01-28 03:32:00,32.0,30.0,29.90,SSE,167,1.0,5.0,94,0.00,,,0.00,,2013-01-28 08:32:00,
2013-01-28 03:42:00,32.0,30.0,29.90,SSE,167,1.0,5.0,94,0.00,,,0.00,,2013-01-28 08:42:00,
2013-01-28 03:52:00,32.0,30.0,29.90,SE,146,0.0,4.0,94,0.00,,,0.00,,2013-01-28 08:52:00,
2013-01-28 04:02:00,32.0,30.0,29.89,SSE,156,0.0,1.0,94,0.00,,,0.00,,2013-01-28 09:02:00,
2013-01-28 04:12:00,32.0,30.0,29.89,SSE,156,0.0,1.0,94,0.00,,,0.00,,2013-01-28 09:12:00,
2013-01-28 04:22:00,32.0,30.0,29.89,SSE,156,0.0,1.0,94,0.00,,,0.00,,2013-01-28 09:22:00,
2013-01-28 04:32:00,32.0,30.0,29.88,SSE,156,1.0,2.0,94,0.00,,,0.00,,2013-01-28 09:32:00,
2013-01-28 04:42:00,32.0,30.0,29.88,SSE,156,1.0,2.0,94,0.00,,,0.00,,2013-01-28 09:42:00,
2013-01-28 04:52:00,32.0,30.0,29.87,SSE,156,1.0,2.0,94,0.00,,,0.00,,2013-01-28 09:52:00,
2013-01-28 05:02:00,32.0,30.0,29.87,SSE,156,2.0,2.0,94,0.00,,,0.00,,2013-01-28 10:02:00,
2013-01-28 05:11:00,32.0,30.0,29.87,SSE,156,2.0,2.0,94,0.00,,,0.00,,2013-01-28 10:11:00,
2013-01-28 05:21:00,32.0,31.0,29.86,SSE,156,0.0,1.0,95,0.00,,,0.00,,2013-01-28 10:21:00,
2013-01-28 05:32:00,32.0,31.0,29.85,East,94,0.0,4.0,95,0.00,,,0.00,,2013-01-28 10:32:00,
2013-01-28 05:42:00,32.0,31.0,29.85,East,94,0.0,4.0,95,0.00,,,0.00,,2013-01-28 10:42:00,
2013-01-28 05:51:00,32.0,31.0,29.85,East,94,1.0,1.0,95,0.00,,,0.00,,2013-01-28 10:51:00,
2013-01-28 06:02:00,32.0,31.0,29.85,WNW,291,0.0,6.0,95,0.00,,,0.00,,2013-01-28 11:02:00,
2013-01-28 06:11:00,32.0,31.0,29.85,WNW,291,0.0,6.0,95,0.00,,,0.00,,2013-01-28 11:11:00,
2013-01-28 06:22:00,33.0,32.0,29.83,NNE,22,1.0,2.0,95,0.00,,,0.00,,2013-01-28 11:22:00,
2013-01-28 06:32:00,33.0,32.0,29.82,NNE,22,0.0,0.0,95,0.00,,,0.00,,2013-01-28 11:32:00,
2013-01-28 06:42:00,33.0,32.0,29.82,NNE,22,0.0,0.0,95,0.00,,,0.00,,2013-01-28 11:42:00,
2013-01-28 06:52:00,33.0,32.0,29.82,NNE,22,0.0,1.0,95,0.00,,,0.00,,2013-01-28 11:52:00,
2013-01-28 07:03:00,33.0,32.0,29.81,NNE,22,1.0,1.0,95,0.00,,,0.00,,2013-01-28 12:03:00,
2013-01-28 07:12:00,33.0,32.0,29.81,NNE,22,1.0,1.0,95,0.00,,,0.00,,2013-01-28 12:12:00,
2013-01-28 07:23:00,32.0,31.0,29.80,NNE,22,1.0,1.0,95,0.00,,,0.00,,2013-01-28 12:23:00,
2013-01-28 07:33:00,32.0,31.0,29.81,NNE,22,0.0,0.0,95,0.00,,,0.00,,2013-01-28 12:33:00,
2013-01-28 07:42:00,32.0,31.0,29.81,NNE,22,0.0,0.0,95,0.00,,,0.00,,2013-01-28 12:42:00,
2013-01-28 07:52:00,32.0,31.0,29.80,NNE,15,1.0,3.0,95,0.00,,,0.00,,2013-01-28 12:52:00,
2013-01-28 08:03:00,32.0,31.0,29.80,NNE,15,0.0,0.0,95,0.00,,,0.00,,2013-01-28 13:03:00,
2013-01-28 08:12:00,32.0,31.0,29.80,NNE,15,0.0,0.0,95,0.00,,,0.00,,2013-01-28 13:12:00,
2013-01-28 08:23:00,32.0,31.0,29.80,NNE,15,0.0,2.0,95,0.00,,,0.00,,2013-01-28 13:23:00,
2013-01-28 08:33:00,32.0,31.0,29.79,NNE,16,0.0,0.0,96,0.00,,,0.00,,2013-01-28 13:33:00,
2013-01-28 08:42:00,32.0,31.0,29.79,NNE,16,0.0,0.0,96,0.00,,,0.00,,2013-01-28 13:42:00,
2013-01-28 08:53:00,32.0,31.0,29.80,NNE,15,0.0,0.0,96,0.00,,,0.00,,2013-01-28 13:53:00,
2013-01-28 09:03:00,32.0,31.0,29.80,NNE,15,0.0,0.0,96,0.00,,,0.00,,2013-01-28 14:03:00,
2013-01-28 09:12:00,32.0,31.0,29.80,NNE,15,0.0,0.0,96,0.00,,,0.00,,2013-01-28 14:12:00,
2013-01-28 09:22:00,33.0,32.0,29.80,NNE,16,0.0,0.0,96,0.00,,,0.00,,2013-01-28 14:22:00,
2013-01-28 09:33:00,33.0,32.0,29.80,NNE,15,0.0,0.0,96,0.00,,,0.00,,2013-01-28 14:33:00,
2013-01-28 09:43:00,33.0,32.0,29.80,NNE,15,0.0,0.0,96,0.00,,,0.00,,2013-01-28 14:43:00,
2013-01-28 09:53:00,33.0,32.0,29.80,NNE,16,0.0,0.0,96,0.00,,,0.00,,2013-01-28 14:53:00,
2013-01-28 10:03:00,33.0,32.0,29.80,NNE,16,0.0,0.0,96,0.00,,,0.00,,2013-01-28 15:03:00,
2013-01-28 10:13:00,33.0,32.0,29.80,NNE,16,0.0,0.0,96,0.00,,,0.00,,2013-01-28 15:13:00,
2013-01-28 10:23:00,33.0,32.0,29.80,NNE,15,0.0,0.0,96,0.00,,,0.00,,2013-01-28 15:23:00,
2013-01-28 10:33:00,33.0,32.0,29.81,NNE,15,0.0,0.0,96,0.00,,,0.00,,2013-01-28 15:33:00,
2013-01-28 10:43:00,33.0,32.0,29.81,NNE,15,0.0,0.0,96,0.00,,,0.00,,2013-01-28 15:43:00,
2013-01-28 10:52:00,34.0,33.0,29.82,NNE,15,0.0,2.0,96,0.00,,,0.00,,2013-01-28 15:52:00,
2013-01-28 11:04:00,37.0,36.0,29.82,NW,307,2.0,6.0,97,0.00,,,0.00,,2013-01-28 16:04:00,
2013-01-28 11:12:00,37.0,36.0,29.82,NW,307,2.0,6.0,97,0.00,,,0.00,,2013-01-28 16:12:00,
2013-01-28 11:22:00,39.0,38.0,29.82,WNW,298,2.0,4.0,97,0.00,,,0.00,,2013-01-28 16:22:00,
2013-01-28 11:32:00,39.0,38.0,29.83,NNW,330,3.0,6.0,97,0.00,,,0.00,,2013-01-28 16:32:00,
2013-01-28 11:43:00,39.0,38.0,29.83,NNW,330,3.0,6.0,97,0.00,,,0.00,,2013-01-28 16:43:00,
2013-01-28 11:52:00,39.0,38.0,29.84,WNW,301,3.0,7.0,97,0.00,,,0.00,,2013-01-28 16:52:00,
2013-01-28 12:02:00,38.0,37.0,29.84,WNW,299,2.0,4.0,97,0.00,,,0.00,,2013-01-28 17:02:00,
2013-01-28 12:12:00,38.0,37.0,29.84,WNW,299,2.0,4.0,97,0.00,,,0.00,,2013-01-28 17:12:00,
2013-01-28 12:23:00,38.0,37.0,29.84,WNW,294,1.0,7.0,96,0.00,,,0.00,,2013-01-28 17:23:00,
2013-01-28 12:33:00,38.0,37.0,29.84,WNW,292,1.0,3.0,96,0.00,,,0.00,,2013-01-28 17:33:00,
2013-01-28 12:42:00,38.0,37.0,29.84,WNW,292,1.0,3.0,96,0.00,,,0.00,,2013-01-28 17:42:00,
2013-01-28 12:52:00,38.0,37.0,29.84,West,279,1.0,6.0,96,0.00,,,0.00,,2013-01-28 17:52:00,
2013-01-28 13:03:00,38.0,37.0,29.84,West,279,1.0,6.0,96,0.00,,,0.00,,2013-01-28 18:03:00,
2013-01-28 13:12:00,38.0,37.0,29.84,West,279,1.0,6.0,96,0.00,,,0.00,,2013-01-28 18:12:00,
2013-01-28 13:23:00,38.0,37.0,29.84,West,279,1.0,6.0,96,0.00,,,0.00,,2013-01-28 18:23:00,
2013-01-28 14:22:00,37.0,35.0,29.85,NW,318,0.0,3.0,94,0.01,,,0.01,,2013-01-28 19:22:00,
2013-01-28 14:33:00,37.0,35.0,29.85,NNW,333,2.0,8.0,94,0.01,,,0.01,,2013-01-28 19:33:00,
2013-01-28 14:43:00,37.0,35.0,29.85,NNW,333,2.0,8.0,94,0.01,,,0.01,,2013-01-28 19:43:00,
2013-01-28 14:53:00,37.0,35.0,29.86,NNW,338,0.0,5.0,93,0.00,,,0.01,,2013-01-28 19:53:00,
2013-01-28 15:03:00,37.0,35.0,29.86,NE,36,1.0,6.0,92,0.00,,,0.01,,2013-01-28 20:03:00,
2013-01-28 15:12:00,37.0,35.0,29.86,NE,36,1.0,6.0,92,0.00,,,0.01,,2013-01-28 20:12:00,
2013-01-28 15:22:00,37.0,35.0,29.86,NE,49,1.0,5.0,91,0.00,,,0.01,,2013-01-28 20:22:00,
2013-01-28 15:33:00,37.0,34.0,29.87,NW,309,0.0,6.0,90,0.00,,,0.01,,2013-01-28 20:33:00,
2013-01-28 15:42:00,37.0,34.0,29.87,NW,309,0.0,6.0,90,0.00,,,0.01,,2013-01-28 20:42:00,
2013-01-28 15:52:00,37.0,34.0,29.87,NW,309,0.0,6.0,90,0.00,,,0.01,,2013-01-28 20:52:00,
2013-01-28 16:03:00,37.0,34.0,29.89,West,278,1.0,-999.0,89,-99.99,,,-99.99,,2013-01-28 21:03:00,
2013-01-28 16:12:00,37.0,34.0,29.89,West,278,1.0,-999.0,89,-99.99,,,-99.99,,2013-01-28 21:12:00,
2013-01-28 16:23:00,37.0,34.0,29.90,West,275,2.0,-999.0,89,-99.99,,,-99.99,,2013-01-28 21:23:00,
2013-01-28 16:33:00,37.0,34.0,29.91,NNW,346,1.0,-999.0,89,-99.99,,,-99.99,,2013-01-28 21:33:00,
2013-01-28 16:43:00,37.0,34.0,29.91,NNW,346,1.0,-999.0,89,-99.99,,,-99.99,,2013-01-28 21:43:00,
2013-01-28 16:53:00,37.0,34.0,29.91,NNW,346,0.0,-999.0,89,-99.99,,,-99.99,,2013-01-28 21:53:00,
2013-01-28 17:02:00,37.0,34.0,29.91,NNW,346,0.0,-999.0,89,-99.99,,,-99.99,,2013-01-28 22:02:00,
2013-01-28 17:12:00,37.0,34.0,29.91,NNW,346,0.0,-999.0,89,-99.99,,,-99.99,,2013-01-28 22:12:00,
2013-01-28 17:23:00,37.0,34.0,29.92,NNW,346,0.0,-999.0,89,-99.99,,,-99.99,,2013-01-28 22:23:00,
2013-01-28 17:33:00,37.0,34.0,29.93,NNW,346,0.0,-999.0,89,-99.99,,,-99.99,,2013-01-28 22:33:00,
2013-01-28 17:42:00,37.0,34.0,29.93,NNW,346,0.0,-999.0,89,-99.99,,,-99.99,,2013-01-28 22:42:00,
2013-01-28 17:52:00,36.0,33.0,29.93,NNW,346,0.0,-999.0,88,-99.99,,,-99.99,,2013-01-28 22:52:00,
2013-01-28 18:02:00,35.0,32.0,29.94,NNW,346,0.0,-999.0,89,-99.99,,,-99.99,,2013-01-28 23:02:00,
2013-01-28 18:12:00,35.0,32.0,29.94,NNW,346,0.0,-999.0,89,-99.99,,,-99.99,,2013-01-28 23:12:00,
2013-01-28 18:22:00,34.0,31.0,29.95,NNW,346,0.0,-999.0,90,-99.99,,,-99.99,,2013-01-28 23:22:00,
2013-01-28 18:32:00,34.0,32.0,29.96,NNW,346,0.0,-999.0,91,-99.99,,,-99.99,,2013-01-28 23:32:00,
2013-01-28 18:42:00,34.0,32.0,29.96,NNW,346,0.0,-999.0,91,-99.99,,,-99.99,,2013-01-28 23:42:00,
2013-01-28 18:53:00,34.0,32.0,29.96,NNW,346,0.0,-999.0,92,-99.99,,,-99.99,,2013-01-28 23:53:00,
2013-01-28 19:02:00,34.0,32.0,29.97,NNW,346,0.0,-999.0,92,-99.99,,,-99.99,,2013-01-29 00:02:00,
2013-01-28 19:12:00,34.0,32.0,29.97,NNW,346,0.0,-999.0,92,-99.99,,,-99.99,,2013-01-29 00:12:00,
2013-01-28 19:22:00,34.0,32.0,29.97,NNW,346,0.0,-999.0,93,-99.99,,,-99.99,,2013-01-29 00:22:00,
2013-01-28 19:32:00,33.0,31.0,29.98,NNW,346,0.0,-999.0,93,-99.99,,,-99.99,,2013-01-29 00:32:00,
2013-01-28 19:42:00,33.0,31.0,29.98,NNW,346,0.0,-999.0,93,-99.99,,,-99.99,,2013-01-29 00:42:00,
2013-01-28 19:52:00,33.0,31.0,29.98,NNW,346,0.0,-999.0,93,-99.99,,,-99.99,,2013-01-29 00:52:00,
2013-01-28 20:02:00,33.0,31.0,29.98,NNW,346,0.0,-999.0,93,-99.99,,,-99.99,,2013-01-29 01:02:00,
2013-01-28 20:12:00,33.0,31.0,29.98,NNW,346,0.0,-999.0,93,-99.99,,,-99.99,,2013-01-29 01:12:00,
2013-01-28 20:23:00,33.0,31.0,29.98,NNW,346,0.0,-999.0,94,-99.99,,,-99.99,,2013-01-29 01:23:00,
2013-01-28 20:32:00,33.0,31.0,29.98,NNW,346,0.0,-999.0,93,-99.99,,,-99.99,,2013-01-29 01:32:00,
2013-01-28 20:42:00,33.0,31.0,29.98,NNW,346,0.0,-999.0,93,-99.99,,,-99.99,,2013-01-29 01:42:00,
2013-01-28 20:53:00,33.0,31.0,29.98,NNW,346,0.0,-999.0,94,-99.99,,,-99.99,,2013-01-29 01:53:00,
2013-01-28 21:02:00,33.0,31.0,29.98,NNW,346,0.0,-999.0,94,-99.99,,,-99.99,,2013-01-29 02:02:00,
2013-01-28 21:12:00,33.0,31.0,29.98,NNW,346,0.0,-999.0,94,-99.99,,,-99.99,,2013-01-29 02:12:00,
2013-01-28 21:22:00,33.0,31.0,29.97,NNW,346,0.0,-999.0,94,-99.99,,,-99.99,,2013-01-29 02:22:00,
2013-01-28 21:33:00,33.0,31.0,29.97,NNW,346,0.0,-999.0,94,-99.99,,,-99.99,,2013-01-29 02:33:00,
2013-01-28 21:42:00,33.0,31.0,29.97,NNW,346,0.0,-999.0,94,-99.99,,,-99.99,,2013-01-29 02:42:00,
2013-01-28 21:52:00,33.0,31.0,29.97,NNW,346,0.0,-999.0,94,-99.99,,,-99.99,,2013-01-29 02:52:00,
2013-01-28 22:03:00,33.0,32.0,29.97,NNW,346,0.0,-999.0,95,-99.99,,,-99.99,,2013-01-29 03:03:00,
2013-01-28 22:12:00,33.0,32.0,29.97,NNW,346,0.0,-999.0,95,-99.99,,,-99.99,,2013-01-29 03:12:00,
2013-01-28 22:22:00,32.0,31.0,29.98,NNW,346,0.0,-999.0,95,-99.99,,,-99.99,,2013-01-29 03:22:00,
2013-01-28 22:32:00,33.0,32.0,29.98,NNW,346,0.0,-999.0,95,-99.99,,,-99.99,,2013-01-29 03:32:00,
2013-01-28 22:42:00,33.0,32.0,29.98,NNW,346,0.0,-999.0,95,-99.99,,,-99.99,,2013-01-29 03:42:00,
2013-01-28 22:52:00,33.0,32.0,29.98,NNW,346,0.0,-999.0,95,-99.99,,,-99.99,,2013-01-29 03:52:00,
2013-01-28 23:12:00,32.0,31.0,29.98,NNW,346,0.0,-999.0,95,-99.99,,,-99.99,,2013-01-29 04:12:00,
2013-01-28 23:22:00,32.0,31.0,29.98,NNW,346,0.0,-999.0,95,-99.99,,,-99.99,,2013-01-29 04:22:00,
2013-01-28 23:32:00,32.0,31.0,29.96,NE,55,0.0,-999.0,95,-99.99,,,-99.99,,2013-01-29 04:32:00,
2013-01-28 23:42:00,32.0,31.0,29.96,NE,55,0.0,-999.0,95,-99.99,,,-99.99,,2013-01-29 04:42:00,
2013-01-28 23:52:00,32.0,31.0,29.96,NE,55,0.0,-999.0,95,-99.99,,,-99.99,,2013-01-29 04:52:00,